Wisconsin Dells, Wisconsin, United States (53965)
Lat: 43.63N, Lon: 89.77W
Wx Zone: WIZ057
Local Info
Past Weather Observations for Today

NOTE: This archive is for the closest National Weather Service station to Wisconsin Dells. Information may differ from the station used for current weather conditions.

Click here for Long-term Archive

Time Weather Temperature Dewpoint Humidity Pressure Winds Precip Visibility
10:30
Clear
18°F / -8°C 7°F / -14°C 62% 30.54 in
(1034 mb)
Calm - 10SM
10:10
Clear
18°F / -8°C 7°F / -14°C 62% 30.54 in
(1034 mb)
Calm - 10SM
09:50
Clear
16°F / -9°C 7°F / -14°C 67% 30.54 in
(1034 mb)
Calm - 10SM
09:30
Partly Cloudy
16°F / -9°C 7°F / -14°C 67% 30.51 in
(1033 mb)
Calm - 10SM
09:10
Partly Cloudy
14°F / -10°C 7°F / -14°C 73% 30.54 in
(1034 mb)
NW 3.5 mph
(NW 6 kph)
- 10SM
08:50
Clear
14°F / -10°C 7°F / -14°C 73% 30.51 in
(1033 mb)
Calm - 10SM
08:30
Clear
12°F / -11°C 7°F / -14°C 79% 30.51 in
(1033 mb)
NW 5.8 mph
(NW 9 kph)
- 10SM
08:10
Clear
12°F / -11°C 5°F / -15°C 73% 30.51 in
(1033 mb)
Calm - 10SM
07:50
Clear
12°F / -11°C 5°F / -15°C 73% 30.51 in
(1033 mb)
NW 3.5 mph
(NW 6 kph)
- 10SM
07:30
Clear
12°F / -11°C 7°F / -14°C 79% 30.51 in
(1033 mb)
NW 3.5 mph
(NW 6 kph)
- 10SM
07:10
Clear
12°F / -11°C 5°F / -15°C 73% 30.51 in
(1033 mb)
NW 4.6 mph
(NW 7 kph)
- 10SM
06:50
Clear
10°F / -12°C 5°F / -15°C 79% 30.51 in
(1033 mb)
NW 4.6 mph
(NW 7 kph)
- 10SM
06:30
Clear
10°F / -12°C 3°F / -16°C 72% 30.51 in
(1033 mb)
WNW 4.6 mph
(WNW 7 kph)
- 10SM
06:10
Clear
12°F / -11°C 5°F / -15°C 73% 30.51 in
(1033 mb)
Calm - 10SM
05:50
Clear
12°F / -11°C 5°F / -15°C 73% 30.48 in
(1032 mb)
Calm - 10SM
05:30
Clear
12°F / -11°C 5°F / -15°C 73% 30.48 in
(1032 mb)
Calm - 10SM
05:10
Clear
14°F / -10°C 5°F / -15°C 67% 30.48 in
(1032 mb)
Calm - 10SM
04:50
Clear
14°F / -10°C 5°F / -15°C 67% 30.48 in
(1032 mb)
Calm - 10SM
04:30
Clear
14°F / -10°C 7°F / -14°C 73% 30.48 in
(1032 mb)
NW 5.8 mph
(NW 9 kph)
- 10SM
04:10
Clear
14°F / -10°C 7°F / -14°C 73% 30.48 in
(1032 mb)
NW 4.6 mph
(NW 7 kph)
- 10SM
03:50
Clear
14°F / -10°C 7°F / -14°C 73% 30.45 in
(1031 mb)
NW 4.6 mph
(NW 7 kph)
- 10SM
03:30
Clear
16°F / -9°C 7°F / -14°C 67% 30.45 in
(1031 mb)
NW 5.8 mph
(NW 9 kph)
- 10SM
03:10
Clear
16°F / -9°C 7°F / -14°C 67% 30.45 in
(1031 mb)
NW 3.5 mph
(NW 6 kph)
- 10SM
02:50
Clear
16°F / -9°C 7°F / -14°C 67% 30.45 in
(1031 mb)
NW 4.6 mph
(NW 7 kph)
- 10SM
02:30
Clear
18°F / -8°C 7°F / -14°C 62% 30.45 in
(1031 mb)
NNW 5.8 mph
(NNW 9 kph)
- 10SM
02:10
Clear
18°F / -8°C 7°F / -14°C 62% 30.42 in
(1030 mb)
NW 6.9 mph
(NW 11 kph)
- 10SM
01:50
Clear
18°F / -8°C 7°F / -14°C 62% 30.42 in
(1030 mb)
NW 8.1 mph
(NW 13 kph)
- 10SM
01:35
Clear
18°F / -8°C 7°F / -14°C 62% 30.42 in
(1030 mb)
NNW 9.2 mph
(NNW 15 kph)
- 10SM
01:10
Clear
19°F / -7°C 7°F / -14°C 58% 30.42 in
(1030 mb)
NNW 10.4 mph
(NNW 17 kph)
- 10SM
00:50
Clear
19°F / -7°C 9°F / -13°C 63% 30.42 in
(1030 mb)
NNW 10.4 mph
(NNW 17 kph)
- 10SM
00:30
Clear
19°F / -7°C 9°F / -13°C 63% 30.42 in
(1030 mb)
NW 8.1 mph
(NW 13 kph)
- 10SM
00:10
Clear
21°F / -6°C 9°F / -13°C 58% 30.39 in
(1029 mb)
NNW 9.2 mph
(NNW 15 kph)
- 10SM
Time Weather Temperature Dewpoint Humidity Pressure Winds Precip Visibility


Weather for websites

WeatherForYou.com, LLC is not responsible for any damages or problems caused by this service. Current weather conditions are obtained from the closest station including government and personal stations which may have varying degrees of accuracy. Weather forecasts are derived from the NOAA NDFD. Like all things, this site belongs to Jesus Christ... He just trusts me to maintain it. If you have any questions or comments email webmaster@weatherforyou.com

Copyright © 2015, WeatherForYou.com LLC. All rights reserved.